E23XBQ-1 Weather Reports


Display with metric or nautical units.
time (UTC)temp
F
wind
direction
speed
MPH
gust
MPH
rain 1hr
in
rain 24hr
in
rain mn
in
humidity
%
barometer
mb
20260903090015 91 0 0.0 0.0 0.00 0.00 0.00 59 967.0
20260903084951 92 0 0.0 0.0 0.00 0.00 0.00 56 967.0
20260903083927 92 0 0.0 0.0 0.00 0.00 0.00 57 967.0
20260903082901 94 0 0.0 0.0 0.00 0.00 0.00 53 967.0
20260903081837 95 0 0.0 0.0 0.00 0.00 0.00 51 967.0
20260903080813 95 0 0.0 0.0 0.00 0.00 0.00 54 967.0
20260903075739 95 0 0.0 0.0 0.00 0.00 0.00 52 967.0
20260903075610 95 0 0.0 0.0 0.00 0.00 0.00 52 967.0
20260903074543 93 0 0.0 0.0 0.00 0.00 0.00 54 968.0
20260903073517 94 0 0.0 0.0 0.00 0.00 0.00 53 968.0
20260903072453 95 0 0.0 0.0 0.00 0.00 0.00 50 968.0
20260903071429 95 0 0.0 0.0 0.00 0.00 0.00 52 968.0
20260903070405 94 0 0.0 0.0 0.00 0.00 0.00 50 969.0
20260903065340 97 0 0.0 0.0 0.00 0.00 0.00 49 969.0
20260903064316 95 0 0.0 0.0 0.00 0.00 0.00 53 969.0
20260903063252 92 0 0.0 0.0 0.00 0.00 0.00 54 969.0
20260903062232 94 0 0.0 0.0 0.00 0.00 0.00 52 969.0
20260903061203 92 0 0.0 0.0 0.00 0.00 0.00 57 970.0
20260903060140 94 0 0.0 0.0 0.00 0.00 0.00 53 970.0
20260903055115 96 0 0.0 0.0 0.00 0.00 0.00 48 970.0
20260903054050 96 0 0.0 0.0 0.00 0.00 0.00 50 970.0
20260903053026 94 0 0.0 0.0 0.00 0.00 0.00 52 970.0
20260903052002 94 0 0.0 0.0 0.00 0.00 0.00 48 971.0
20260903050938 94 0 0.0 0.0 0.00 0.00 0.00 51 971.0
20260903045914 93 0 0.0 0.0 0.00 0.00 0.00 50 971.0
20260903044849 93 0 0.0 0.0 0.00 0.00 0.00 51 971.0
20260903043828 93 0 0.0 0.0 0.00 0.00 0.00 49 972.0
20260903042801 92 0 0.0 0.0 0.00 0.00 0.00 52 972.0
20260903041736 92 0 0.0 0.0 0.00 0.00 0.00 52 972.0
20260903040712 92 0 0.0 0.0 0.00 0.00 0.00 54 972.0
20260903035648 90 0 0.0 0.0 0.00 0.00 0.00 58 972.0
20260903034624 90 0 0.0 0.0 0.00 0.00 0.00 56 972.0
20260903033559 90 0 0.0 0.0 0.00 0.00 0.00 59 972.0
20260903032535 89 0 0.0 0.0 0.00 0.00 0.00 60 972.0
20260903031511 88 0 0.0 0.0 0.00 0.00 0.00 61 972.0
20260903030447 87 0 0.0 0.0 0.00 0.00 0.00 62 972.0
20260903025422 87 0 0.0 0.0 0.00 0.00 0.00 63 973.0
20260903024358 89 0 0.0 0.0 0.00 0.00 0.00 61 973.0
20260903023334 88 0 0.0 0.0 0.00 0.00 0.00 65 973.0
20260903022310 86 0 0.0 0.0 0.00 0.00 0.00 66 973.0
20260903021246 84 0 0.0 0.0 0.00 0.00 0.00 70 973.0
20260903020221 83 0 0.0 0.0 0.00 0.00 0.00 73 973.0
20260903015157 81 0 0.0 0.0 0.00 0.00 0.00 75 973.0
20260903014132 80 0 0.0 0.0 0.00 0.00 0.00 77 973.0
20260903013108 80 0 0.0 0.0 0.00 0.00 0.00 77 973.0
20260903012043 80 0 0.0 0.0 0.00 0.00 0.00 77 973.0
20260903011019 81 0 0.0 0.0 0.00 0.00 0.00 76 973.0
20260903005954 80 0 0.0 0.0 0.00 0.00 0.00 78 973.0
20260903004930 79 0 0.0 0.0 0.00 0.00 0.00 78 973.0
20260903003905 78 0 0.0 0.0 0.00 0.00 0.00 83 972.0
20260903002841 77 0 0.0 0.0 0.00 0.00 0.00 83 972.0
20260903001817 77 0 0.0 0.0 0.00 0.00 0.00 82 972.0
20260903000752 77 0 0.0 0.0 0.00 0.00 0.00 81 972.0
20260902235722 77 0 0.0 0.0 0.00 0.00 0.00 79 972.0
20260902234703 76 0 0.0 0.0 0.00 0.00 0.00 84 972.0
20260902234653 76 0 0.0 0.0 0.00 0.00 0.00 84 972.0
20260902233625 76 0 0.0 0.0 0.00 0.00 0.00 85 972.0
20260902232555 77 0 0.0 0.0 0.00 0.00 0.00 82 972.0
20260902232000 0 0 0.0 0.0 0.00 0.00 0.00
20260902231955 77 0 0.0 0.0 0.00 0.00 0.00 82 972.0
20260902230937 77 0 0.0 0.0 0.00 0.00 0.00 81 972.0
20260902230926 77 0 0.0 0.0 0.00 0.00 0.00 81 972.0
20260902225857 77 0 0.0 0.0 0.00 0.00 0.00 81 972.0
20260902224831 77 0 0.0 0.0 0.00 0.00 0.00 83 972.0
20260902223800 77 0 0.0 0.0 0.00 0.00 0.00 80 971.0
20260902222728 77 0 0.0 0.0 0.00 0.00 0.00 81 971.0
20260902221657 76 0 0.0 0.0 0.00 0.00 0.00 83 971.0
20260902220629 76 0 0.0 0.0 0.00 0.00 0.00 86 971.0
20260902215602 77 0 0.0 0.0 0.00 0.00 0.00 84 971.0
20260902214537 77 0 0.0 0.0 0.00 0.00 0.00 81 971.0
20260902213513 77 0 0.0 0.0 0.00 0.00 0.00 81 971.0
20260902212448 76 0 0.0 0.0 0.00 0.00 0.00 85 971.0
20260902211423 76 0 0.0 0.0 0.00 0.00 0.00 86 971.0
20260902210359 76 0 0.0 0.0 0.00 0.00 0.00 86 971.0
20260902205334 77 0 0.0 0.0 0.00 0.00 0.00 85 971.0
20260902204259 77 0 0.0 0.0 0.00 0.00 0.00 83 971.0
20260902203235 77 0 0.0 0.0 0.00 0.00 0.00 83 971.0
20260902202211 78 0 0.0 0.0 0.00 0.00 0.00 82 971.0
20260902201147 78 0 0.0 0.0 0.00 0.00 0.00 81 971.0
20260902200122 77 0 0.0 0.0 0.00 0.00 0.00 81 971.0
20260902195058 77 0 0.0 0.0 0.00 0.00 0.00 85 971.0
20260902194034 77 0 0.0 0.0 0.00 0.00 0.00 85 971.0
20260902193010 78 0 0.0 0.0 0.00 0.00 0.00 82 972.0
20260902191945 78 0 0.0 0.0 0.00 0.00 0.00 81 972.0
20260902190921 77 0 0.0 0.0 0.00 0.00 0.00 82 972.0
20260902185836 77 0 0.0 0.0 0.00 0.00 0.00 83 972.0
20260902184812 77 0 0.0 0.0 0.00 0.00 0.00 84 972.0
20260902183748 77 0 0.0 0.0 0.00 0.00 0.00 84 972.0
20260902182723 77 0 0.0 0.0 0.00 0.00 0.00 83 972.0
20260902181659 77 0 0.0 0.0 0.00 0.00 0.00 85 972.0
20260902180635 77 0 0.0 0.0 0.00 0.00 0.00 84 972.0
20260902175610 78 0 0.0 0.0 0.00 0.00 0.00 80 972.0
20260902174546 77 0 0.0 0.0 0.00 0.00 0.00 84 973.0
20260902173522 78 0 0.0 0.0 0.00 0.00 0.00 83 973.0
20260902172458 78 0 0.0 0.0 0.00 0.00 0.00 84 973.0
20260902171407 77 0 0.0 0.0 0.00 0.00 0.00 85 973.0
20260902170342 78 0 0.0 0.0 0.00 0.00 0.00 84 973.0
20260902165318 78 0 0.0 0.0 0.00 0.00 0.00 80 973.0
20260902164254 78 0 0.0 0.0 0.00 0.00 0.00 76 973.0
20260902163229 78 0 0.0 0.0 0.00 0.00 0.00 80 973.0
20260902162205 77 0 0.0 0.0 0.00 0.00 0.00 82 973.0
20260902161140 78 0 0.0 0.0 0.00 0.00 0.00 82 973.0
20260902160116 79 0 0.0 0.0 0.00 0.00 0.00 74 973.0
20260902155052 78 0 0.0 0.0 0.00 0.00 0.00 77 973.0
20260902154027 78 0 0.0 0.0 0.00 0.00 0.00 83 973.0
20260902152944 77 0 0.0 0.0 0.00 0.00 0.00 84 973.0
20260902151920 77 0 0.0 0.0 0.00 0.00 0.00 84 973.0
20260902150857 78 0 0.0 0.0 0.00 0.00 0.00 973.0
20260902150855 78 0 0.0 0.0 0.00 0.00 0.00 82 973.0
20260902145831 78 0 0.0 0.0 0.00 0.00 0.00 81 973.0
20260902144807 77 0 0.0 0.0 0.00 0.00 0.00 85 973.0
20260902143742 77 0 0.0 0.0 0.00 0.00 0.00 85 973.0
20260902142718 77 0 0.0 0.0 0.00 0.00 0.00 86 973.0
20260902141654 77 0 0.0 0.0 0.00 0.00 0.00 87 973.0
20260902140630 78 0 0.0 0.0 0.00 0.00 0.00 86 972.0
20260902135605 78 0 0.0 0.0 0.00 0.00 0.00 86 972.0
20260902134526 78 0 0.0 0.0 0.00 0.00 0.00 86 972.0
20260902133501 78 0 0.0 0.0 0.00 0.00 0.00 86 972.0
20260902132437 78 0 0.0 0.0 0.00 0.00 0.00 85 972.0
20260902131410 78 0 0.0 0.0 0.00 0.00 0.00 85 972.0
20260902130343 78 0 0.0 0.0 0.00 0.00 0.00 87 972.0
20260902125318 78 0 0.0 0.0 0.00 0.00 0.00 83 972.0
20260902124254 79 0 0.0 0.0 0.00 0.00 0.00 82 971.0
20260902123230 79 0 0.0 0.0 0.00 0.00 0.00 85 971.0
20260902122219 79 0 0.0 0.0 0.00 0.00 0.00 87 971.0
20260902122205 79 0 0.0 0.0 0.00 0.00 0.00 87 971.0
20260902121141 79 0 0.0 0.0 0.00 0.00 0.00 85 971.0
20260902120113 79 0 0.0 0.0 0.00 0.00 0.00 86 971.0
20260902115049 79 0 0.0 0.0 0.00 0.00 0.00 86 971.0
20260902114024 79 0 0.0 0.0 0.00 0.00 0.00 84 970.0
20260902113000 79 0 0.0 0.0 0.00 0.00 0.00 85 970.0
20260902111935 78 0 0.0 0.0 0.00 0.00 0.00 83 970.0
20260902110910 79 0 0.0 0.0 0.00 0.00 0.00 83 970.0
20260902105846 79 0 0.0 0.0 0.00 0.00 0.00 83 970.0
20260902104822 79 0 0.0 0.0 0.00 0.00 0.00 82 970.0
20260902103758 80 0 0.0 0.0 0.00 0.00 0.00 80 970.0
20260902102734 81 0 0.0 0.0 0.00 0.00 0.00 78 970.0
20260902101709 82 0 0.0 0.0 0.00 0.00 0.00 73 969.0
20260902100645 83 0 0.0 0.0 0.00 0.00 0.00 70 969.0
20260902095621 84 0 0.0 0.0 0.00 0.00 0.00 69 969.0
20260902094556 84 0 0.0 0.0 0.00 0.00 0.00 67 969.0
20260902093532 85 0 0.0 0.0 0.00 0.00 0.00 70 969.0
20260902092519 85 0 0.0 0.0 0.00 0.00 0.00 70 969.0
20260902092508 85 0 0.0 0.0 0.00 0.00 0.00 70 969.0
20260902091443 85 0 0.0 0.0 0.00 0.00 0.00 60 969.0